Dewpoint
59 59 59 59 58 57 57 56 55 53 52 54 55 57 58 59 59 59 59 60 59 59 59 59 59 60 60 60 61 61 61 61 60 59 59 59 58 58
57 57 58 58 58 57 57 57 57 55 53 56 56 57 58 59 60 60 60 59 59 59 58 58 57 58 58 59 59 60 60 60 60 60 60 59 58 58
55 55 56 57 57 57 58 57 57 57 55 55 56 57 57 58 58 59 59 59 59 58 57 57 57 57 57 58 58 58 58 58 59 59 59 59 58 57
50 53 54 55 55 56 56 56 55 57 56 55 56 56 56 57 57 58 58 58 58 57 57 57 56 56 57 57 57 57 57 57 57 58 58 58 58 57
48 49 50 53 54 55 55 55 55 56 57 56 55 56 57 56 57 57 57 57 56 56 56 56 55 55 55 56 56 56 56 55 55 55 55 56 56 56
48 49 50 51 52 54 55 55 55 55 56 56 55 56 57 55 56 55 54 54 54 53 53 54 54 54 54 55 55 54 54 54 54 54 54 54 54 54
49 49 51 52 53 53 54 54 54 54 55 54 54 55 54 52 53 53 53 52 51 51 51 51 51 52 52 52 52 52 52 52 52 52 52 52 53 53
48 49 50 52 52 52 53 53 52 54 54 53 53 53 52 52 49 50 50 49 48 47 47 48 49 49 49 49 50 50 50 50 50 50 50 50 50 51
48 48 48 49 50 48 47 45 45 45 46 50 51 47 46 44 45 45 45 45 45 44 44 44 45 45 46 46 45 45 46 47 47 48 47 47 48 46
45 46 46 46 47 46 44 42 41 42 42 42 42 41 41 41 42 42 41 41 41 41 42 40 42 41 41 40 40 41 43 43 43 43 44 44 45 45
42 42 43 43 45 44 42 40 39 39 41 41 41 40 40 40 40 39 36 37 37 38 38 37 38 38 37 36 37 40 40 39 39 39 40 40 40 42
39 40 41 41 42 42 40 39 37 37 37 36 35 35 35 35 36 35 35 34 34 34 35 34 35 35 33 35 36 37 36 35 37 36 35 36 36 38
37 37 38 38 38 39 39 37 36 36 35 33 32 32 31 31 31 32 33 33 32 32 35 32 32 33 33 32 34 35 34 35 35 33 34 34 34 35
33 33 32 33 33 33 33 34 33 31 30 29 27 26 26 26 26 28 29 30 32 31 32 33 31 30 29 29 28 32 32 32 33 33 32 34 35 34
32 31 30 30 31 30 29 28 27 26 26 25 24 24 25 26 26 27 28 28 28 28 30 32 31 31 30 28 28 28 28 29 30 31 33 31 31 32
31 30 29 28 28 27 26 25 25 26 25 23 22 24 25 24 25 24 25 25 25 24 26 25 29 30 28 29 29 27 26 26 28 29 29 30 30 32
25 24 23 23 23 24 24 23 23 23 23 23 22 23 23 22 22 22 23 23 22 23 24 26 26 27 28 29 27 26 26 26 27 27 27 27 28 30
23 22 22 22 22 22 22 22 22 22 22 21 19 19 19 18 20 18 19 19 20 20 21 23 22 24 23 23 29 26 26 26 27 26 27 26 25 27
23 23 22 22 22 22 22 20 20 22 20 18 17 17 18 17 17 17 17 18 18 19 20 19 20 21 19 18 21 27 24 25 28 27 27 25 25 27
23 23 23 23 22 21 20 20 20 19 20 18 18 17 17 17 16 16 16 17 18 18 17 17 18 19 20 20 21 22 27 27 25 26 26 26 26 27
23 23 24 23 22 21 21 20 19 18 20 19 18 17 17 16 16 16 17 19 19 17 17 18 19 22 22 23 21 20 22 25 27 27 27 26 25 25
23 23 23 23 22 21 20 19 18 18 18 19 18 17 16 16 16 17 17 17 18 18 18 19 20 20 21 22 21 22 22 23 24 25 27 28 26 22
22 22 23 23 22 20 19 18 17 17 18 19 17 16 15 15 17 17 17 18 18 18 18 18 18 19 20 21 22 22 22 22 23 23 24 26 28 30
Wind_Speed
17 17 18 16 14 15 15 17 18 17 20 11 12 12 13 13 12 14 14 17 20 23 22 22 24 23 26 23 25 23 22 22 21 21 20 20 19 21
15 16 15 14 15 14 16 16 15 20 24 8 14 14 12 13 16 16 19 23 25 23 22 24 21 24 23 24 26 23 21 21 20 22 22 22 22 19
12 14 16 15 15 15 15 18 20 18 23 23 17 14 16 19 15 17 17 16 17 21 23 24 21 23 24 25 27 25 22 20 20 21 22 23 23 22
13 12 15 14 17 17 18 19 20 18 20 26 19 13 19 16 20 16 16 13 16 14 21 24 23 22 23 24 23 22 21 20 19 23 24 24 24 24
15 15 17 15 16 15 17 18 20 20 19 21 22 17 18 12 15 13 11 15 11 17 19 21 19 19 20 21 21 21 21 21 19 22 22 25 25 25
17 17 18 18 19 17 17 19 17 18 19 21 21 18 15 6 12 9 9 10 13 10 13 16 12 11 12 15 15 16 16 14 17 19 21 23 24 25
15 16 17 18 20 20 17 18 16 17 18 19 17 12 9 5 8 6 12 8 3 3 7 8 6 7 5 7 9 12 14 13 13 16 18 20 20 21
15 15 14 13 16 19 18 13 7 12 19 21 15 12 8 6 5 4 6 6 6 4 1 4 2 4 3 3 5 8 11 11 12 14 15 17 18 19
8 7 7 7 3 7 13 13 13 13 7 3 5 3 4 2 2 3 4 4 4 2 2 5 2 7 2 3 8 11 12 12 12 13 14 16 17 19
4 2 0 2 1 2 8 10 13 14 13 11 12 10 9 8 6 3 1 2 1 3 4 3 2 5 7 8 11 10 8 8 12 14 16 17 18 19
12 12 10 8 5 7 8 12 12 13 17 19 20 19 18 17 10 5 3 3 2 1 6 2 3 5 6 10 7 5 8 9 15 18 17 18 21 22
14 15 20 16 15 13 10 9 11 8 10 11 11 15 16 15 16 12 7 4 1 1 6 5 4 5 6 4 6 11 12 19 20 15 23 24 23 17
11 12 14 18 18 18 17 13 8 11 11 11 11 11 10 10 8 8 7 5 2 2 6 8 5 5 4 5 4 11 17 14 12 17 18 19 20 20
11 11 12 15 15 15 14 13 12 10 9 10 10 10 10 10 9 8 6 4 2 4 7 0 3 4 6 7 7 5 10 15 16 16 17 17 18 21
8 8 10 11 14 13 14 15 13 11 10 10 8 7 8 10 9 10 9 7 7 5 5 3 4 5 6 9 11 13 14 7 15 13 12 16 16 16
9 10 10 11 12 10 10 12 11 10 8 10 9 9 9 13 11 10 6 10 6 6 11 9 7 5 10 11 11 15 13 7 9 15 14 15 15 13
7 5 4 5 6 7 8 9 9 9 9 8 8 7 7 9 10 11 8 8 8 10 10 11 15 12 13 15 14 12 11 12 11 13 15 17 16 16
3 3 2 3 3 3 2 3 5 5 5 5 6 6 6 7 8 10 9 9 10 12 14 13 15 15 8 8 14 12 10 12 14 14 14 15 17 15
3 4 5 4 3 2 2 2 2 4 4 6 6 8 8 8 8 9 10 9 11 11 12 15 16 14 13 13 9 5 14 19 13 14 12 15 18 17
5 8 8 7 6 5 4 3 1 1 1 3 5 5 6 6 7 9 10 8 11 10 12 12 13 13 12 14 16 18 16 14 16 17 16 15 16 22
8 8 8 8 8 8 7 6 4 2 2 0 1 3 5 6 8 8 8 11 12 9 12 13 12 17 13 12 13 18 17 16 14 17 16 16 17 10
11 11 11 10 10 11 10 8 5 3 2 2 2 2 4 6 7 9 8 10 10 11 13 13 13 14 13 13 17 19 17 17 17 19 20 18 14 8
14 13 12 11 11 10 9 8 7 5 4 3 2 2 3 6 7 7 8 9 10 11 12 14 15 13 13 15 18 17 20 20 15 16 15 13 14 16
Wind_Direction
232 229 228 235 225 228 226 218 241 260 265 253 237 225 222 209 207 211 230 250 253 256 259 256 252 248 248 252 256 255 256 260 258 247 249 256 267 268
240 239 236 231 223 225 222 227 223 239 259 249 248 232 214 214 209 206 232 233 248 254 249 250 260 251 260 258 256 253 254 256 253 247 249 255 260 262
250 245 248 238 240 235 232 238 233 227 241 255 250 247 233 227 224 218 227 230 244 246 253 258 259 257 254 250 251 246 246 251 254 253 249 253 257 257
261 259 258 250 245 237 239 243 242 230 235 255 251 236 228 225 231 226 228 237 245 252 255 257 254 251 250 249 245 243 242 245 244 253 252 255 252 255
263 260 258 254 255 243 234 238 247 247 242 247 258 249 239 220 224 229 229 236 246 251 254 258 257 255 255 252 247 244 247 248 251 252 256 255 257 259
260 258 259 254 248 244 242 240 239 245 245 242 248 253 231 204 210 213 247 243 257 252 258 256 256 253 255 262 261 260 258 266 267 265 263 261 258 258
269 260 255 252 252 249 245 244 237 244 250 242 243 241 201 204 221 198 232 238 273 279 290 280 272 261 270 272 272 278 278 275 280 276 273 271 270 264
277 282 276 260 266 262 247 238 230 242 263 234 242 234 225 189 206 189 223 218 232 53 168 252 208 285 294 302 322 307 302 297 289 285 284 285 284 281
273 288 287 308 281 149 114 101 78 67 66 258 229 204 168 169 161 141 197 198 194 7 345 282 3 291 274 347 330 310 312 316 313 310 305 298 292 288
19 48 268 316 306 142 115 92 70 57 51 62 91 76 80 71 75 100 155 186 294 67 22 273 316 293 333 332 331 337 348 356 353 342 332 322 310 300
55 54 51 43 61 135 123 110 91 80 73 76 75 75 68 57 55 128 62 76 46 44 31 335 331 318 321 316 346 6 349 0 347 338 336 328 319 313
48 43 47 49 50 54 78 92 96 83 80 71 60 50 46 43 45 53 58 85 72 312 23 357 355 3 336 331 338 348 341 333 335 326 318 314 314 309
56 49 44 48 49 49 55 57 65 73 70 72 62 52 42 36 42 50 56 68 42 291 17 27 345 339 261 305 330 328 305 311 320 318 312 313 310 306
51 44 43 49 53 52 55 55 59 65 65 64 63 48 33 19 9 6 9 16 340 275 303 289 268 301 295 297 294 310 305 305 297 306 310 307 310 305
68 64 54 53 55 58 58 56 56 64 74 69 54 34 18 11 19 13 8 15 349 348 338 279 237 273 283 274 281 289 310 288 295 282 294 301 297 297
88 81 77 65 61 61 52 45 43 49 56 50 33 24 21 20 19 6 360 360 345 351 332 324 309 268 279 265 270 288 293 290 301 301 303 296 291 286
112 91 76 67 64 59 56 51 44 43 45 40 31 29 26 3 4 3 12 1 351 334 335 330 325 303 285 270 279 278 286 291 291 288 296 298 300 295
104 134 126 104 92 80 74 70 49 42 45 46 42 45 37 22 13 6 9 2 351 336 331 326 332 332 320 288 236 258 276 274 281 295 295 292 297 298
170 165 158 156 150 127 99 64 39 20 29 42 33 20 12 18 19 7 360 348 338 330 321 322 333 345 335 323 283 230 329 303 300 301 290 300 296 299
182 179 182 178 178 182 179 182 198 4 30 19 11 12 4 359 4 352 345 334 324 324 322 320 326 333 321 314 305 299 284 293 305 303 303 302 294 288
196 196 195 193 195 194 199 194 199 237 202 144 350 333 348 338 340 342 341 347 345 329 325 319 311 317 308 293 305 309 312 310 299 294 295 292 296 288
202 201 199 201 200 200 199 197 203 228 236 205 216 299 322 326 335 336 333 332 329 322 314 317 327 328 321 311 303 301 302 312 308 295 284 270 277 285
207 203 199 198 198 198 200 201 205 213 217 219 209 315 318 328 329 323 326 324 324 325 326 321 318 316 303 302 300 299 305 308 304 302 300 272 270 274